User: anonymous   Login
Location: *
(43.4667°N, 11.6833°E)
Time: 07:50:21
(UTC+00:00)
Language:

Cosmos 1992 Rocket - Orbit

View from above orbital plane
View from above orbital plane
View from above satellite
View from above satellite

Ground track
Ground track

The orbit data is extracted from the following two-line orbital elements,

1 19770U 89005B   19262.70175976  .00000002  00000-0  92163-5 0  9996
2 19770  74.0464 329.5712 0005395 216.8710 271.3192 14.38816022605143
Epoch (UTC): 19 September 2019 16:50:32
Eccentricity: 0.0005395
inclination: 74.0464°
perigee height: 758 km
apogee height: 766 km
right ascension of ascending node: 329.5712°
argument of perigee: 216.8710°
revolutions per day: 14.38816022
mean anomaly at epoch: 271.3192°
orbit number at epoch: 60514

The dashed part of the orbit path shows where the satellite is in the earth's shadow,  

DLR